• In United Kingdom
  • List of Countries
  • For 7 days
  • Water Temperature
  • Satellite Maps
  • Weather Map
  • Weather Widgets
  • user-avatar
    Login

    Hourly Weather Prutz

    Today, 14 December, Thursday

    Time Temperature Precipitation Wind Pressure Humidity
    00:00 -8°C° 0.1 mm 4 mps 623 mmHg 74%
    01:00 -7°C° 0.1 mm 4 mps 623 mmHg 73%
    02:00 -7°C° 0.1 mm 4 mps 623 mmHg 74%
    03:00 -7°C° 0.1 mm 4 mps 622 mmHg 75%
    04:00 -5°C° 0.1 mm 4 mps 622 mmHg 76%
    05:00 -5°C° 0.2 mm 4 mps 622 mmHg 79%
    06:00 -5°C° 0.2 mm 3 mps 622 mmHg 82%
    07:00 -5°C° 0.2 mm 3 mps 622 mmHg 85%
    08:00 -5°C° 0.4 mm 3 mps 623 mmHg 86%
    09:00 -4°C° 0.4 mm 3 mps 623 mmHg 87%
    10:00 -4°C° 0.4 mm 3 mps 624 mmHg 89%
    11:00 -2°C° 0.6 mm 2 mps 624 mmHg 89%
    12:00 -2°C° 0.6 mm 2 mps 623 mmHg 89%
    13:00 -2°C° 0.6 mm 2 mps 623 mmHg 89%
    14:00 -2°C° 0.7 mm 2 mps 622 mmHg 90%
    15:00 -1°C° 0.7 mm 1 mps 622 mmHg 92%
    16:00 -1°C° 0.7 mm 1 mps 621 mmHg 93%
    17:00 -2°C° 0.7 mm 1 mps 621 mmHg 94%
    18:00 -2°C° 0.7 mm 1 mps 621 mmHg 94%
    19:00 -2°C° 0.7 mm 1 mps 621 mmHg 94%
    20:00 -4°C° 0.8 mm 2 mps 620 mmHg 93%
    21:00 -5°C° 0.8 mm 2 mps 620 mmHg 93%
    22:00 -5°C° 0.8 mm 2 mps 619 mmHg 93%
    23:00 -5°C° 0.9 mm 3 mps 619 mmHg 93%

    Tomorrow, 15 December, Friday

    Time Temperature Precipitation Wind Pressure Humidity
    00:00 -5°C° 0.9 mm 3 mps 618 mmHg 93%
    01:00 -5°C° 0.9 mm 3 mps 618 mmHg 92%
    02:00 -5°C° 1.3 mm 3 mps 618 mmHg 93%
    03:00 -5°C° 1.3 mm 3 mps 618 mmHg 94%
    04:00 -5°C° 1.3 mm 3 mps 618 mmHg 95%
    05:00 -4°C° 0.6 mm 2 mps 619 mmHg 94%
    06:00 -5°C° 0.6 mm 2 mps 619 mmHg 93%
    07:00 -4°C° 0.6 mm 1 mps 619 mmHg 92%
    08:00 -4°C° 0 mm 1 mps 619 mmHg 89%
    09:00 -6°C° 0 mm 2 mps 620 mmHg 87%
    10:00 -6°C° 0 mm 2 mps 620 mmHg 84%
    11:00 -5°C° 0 mm 2 mps 620 mmHg 80%
    12:00 -2°C° 0 mm 1 mps 620 mmHg 75%
    13:00 -1°C° 0 mm 1 mps 620 mmHg 71%
    14:00 -2°C° 0 mm 1 mps 619 mmHg 75%
    15:00 -3°C° 0 mm 1 mps 619 mmHg 79%
    16:00 -6°C° 0 mm 1 mps 619 mmHg 84%
    17:00 -7°C° 0 mm 1 mps 619 mmHg 82%
    18:00 -8°C° 0 mm 1 mps 619 mmHg 81%
    19:00 -9°C° 0 mm 1 mps 618 mmHg 79%
    20:00 -10°C° 0 mm 1 mps 618 mmHg 77%
    21:00 -12°C° 0 mm 2 mps 618 mmHg 75%
    22:00 -12°C° 0 mm 2 mps 618 mmHg 72%
    23:00 -12°C° 0 mm 2 mps 619 mmHg 72%

    Day after tomorrow, 16 December, Saturday

    Time Temperature Precipitation Wind Pressure Humidity
    00:00 -10°C° 0 mm 1 mps 619 mmHg 71%
    01:00 -10°C° 0 mm 1 mps 619 mmHg 70%
    02:00 -12°C° 0 mm 2 mps 620 mmHg 73%
    03:00 -12°C° 0 mm 2 mps 620 mmHg 77%
    04:00 -10°C° 0 mm 2 mps 620 mmHg 80%
    05:00 -10°C° 0.2 mm 2 mps 621 mmHg 83%
    06:00 -9°C° 0.2 mm 2 mps 621 mmHg 86%
    07:00 -9°C° 0.2 mm 2 mps 622 mmHg 89%
    08:00 -8°C° 0.3 mm 2 mps 623 mmHg 90%
    09:00 -8°C° 0.3 mm 2 mps 624 mmHg 91%
    10:00 -7°C° 0.3 mm 2 mps 624 mmHg 91%
    11:00 -6°C° 0.3 mm 2 mps 625 mmHg 91%
    12:00 -6°C° 0.3 mm 2 mps 625 mmHg 90%
    13:00 -6°C° 0.3 mm 2 mps 625 mmHg 90%
    14:00 -6°C° 0.2 mm 2 mps 625 mmHg 91%
    15:00 -6°C° 0.2 mm 2 mps 625 mmHg 92%
    16:00 -7°C° 0.2 mm 2 mps 626 mmHg 93%
    17:00 -7°C° 0.3 mm 2 mps 626 mmHg 93%
    18:00 -7°C° 0.3 mm 1 mps 626 mmHg 94%
    19:00 -7°C° 0.3 mm 1 mps 627 mmHg 94%
    20:00 -8°C° 0.5 mm 1 mps 627 mmHg 94%
    21:00 -8°C° 0.5 mm 1 mps 628 mmHg 94%
    22:00 -8°C° 0.5 mm 1 mps 628 mmHg 94%
    23:00 -8°C° 0.5 mm 1 mps 629 mmHg 94%

    17 December, Sunday

    Time Temperature Precipitation Wind Pressure Humidity
    00:00 -9°C° 0.5 mm 2 mps 629 mmHg 95%
    01:00 -9°C° 0.5 mm 2 mps 629 mmHg 95%
    02:00 -9°C° 0.3 mm 2 mps 630 mmHg 95%
    03:00 -9°C° 0.3 mm 2 mps 630 mmHg 95%
    04:00 -9°C° 0.3 mm 2 mps 630 mmHg 95%
    05:00 -9°C° 0.2 mm 2 mps 631 mmHg 95%
    06:00 -9°C° 0.2 mm 2 mps 631 mmHg 95%
    07:00 -10°C° 0.2 mm 2 mps 631 mmHg 95%
    08:00 -9°C° 0.2 mm 2 mps 632 mmHg 93%
    09:00 -9°C° 0.2 mm 2 mps 632 mmHg 92%
    10:00 -9°C° 0.2 mm 2 mps 633 mmHg 91%
    11:00 -8°C° 0.1 mm 2 mps 633 mmHg 88%
    12:00 -8°C° 0.1 mm 2 mps 633 mmHg 86%
    13:00 -7°C° 0.1 mm 2 mps 633 mmHg 83%
    14:00 -8°C° 0.2 mm 2 mps 633 mmHg 86%
    15:00 -8°C° 0.2 mm 2 mps 633 mmHg 89%
    16:00 -9°C° 0.2 mm 2 mps 633 mmHg 92%
    17:00 -9°C° 0.3 mm 2 mps 634 mmHg 92%
    18:00 -10°C° 0.3 mm 2 mps 634 mmHg 92%
    19:00 -10°C° 0.3 mm 2 mps 635 mmHg 93%
    20:00 -12°C° 0.1 mm 2 mps 635 mmHg 93%
    21:00 -10°C° 0.1 mm 1 mps 635 mmHg 93%
    22:00 -11°C° 0.1 mm 1 mps 635 mmHg 93%
    23:00 -13°C° 0 mm 2 mps 635 mmHg 92%

    18 December, Monday

    Time Temperature Precipitation Wind Pressure Humidity
    00:00 -14°C° 0 mm 2 mps 635 mmHg 91%
    01:00 -14°C° 0 mm 2 mps 635 mmHg 91%
    02:00 -14°C° 0 mm 2 mps 635 mmHg 89%
    03:00 -13°C° 0 mm 2 mps 635 mmHg 88%
    04:00 -12°C° 0 mm 2 mps 635 mmHg 87%
    05:00 -10°C° 0.2 mm 2 mps 635 mmHg 88%
    06:00 -9°C° 0.2 mm 2 mps 635 mmHg 88%
    07:00 -8°C° 0.2 mm 2 mps 635 mmHg 89%
    08:00 -8°C° 1 mm 3 mps 635 mmHg 90%
    09:00 -7°C° 1 mm 3 mps 634 mmHg 91%
    10:00 -6°C° 1 mm 3 mps 634 mmHg 93%
    11:00 -6°C° 1.9 mm 3 mps 634 mmHg 93%
    12:00 -4°C° 1.9 mm 2 mps 634 mmHg 94%
    13:00 -4°C° 1.9 mm 2 mps 633 mmHg 95%
    14:00 -4°C° 1.8 mm 2 mps 633 mmHg 95%
    15:00 -4°C° 1.8 mm 2 mps 633 mmHg 95%
    16:00 -4°C° 1.8 mm 2 mps 632 mmHg 96%
    17:00 -4°C° 1.3 mm 2 mps 633 mmHg 96%
    18:00 -4°C° 1.3 mm 2 mps 633 mmHg 96%
    19:00 -4°C° 1.3 mm 2 mps 633 mmHg 96%
    20:00 -4°C° 0.8 mm 2 mps 634 mmHg 96%
    21:00 -4°C° 0.8 mm 2 mps 634 mmHg 96%
    22:00 -4°C° 0.8 mm 2 mps 635 mmHg 96%
    23:00 -5°C° 0.2 mm 2 mps 635 mmHg 96%

    19 December, Tuesday

    Time Temperature Precipitation Wind Pressure Humidity
    00:00 -6°C° 0.2 mm 2 mps 635 mmHg 96%
    01:00 -7°C° 0.2 mm 2 mps 635 mmHg 96%
    02:00 -7°C° 0 mm 2 mps 635 mmHg 96%
    03:00 -8°C° 0 mm 2 mps 635 mmHg 95%
    04:00 -9°C° 0 mm 2 mps 635 mmHg 95%
    05:00 -7°C° 0.1 mm 1 mps 635 mmHg 94%
    06:00 -7°C° 0.1 mm 1 mps 636 mmHg 93%
    07:00 -6°C° 0.1 mm 1 mps 636 mmHg 92%
    08:00 -6°C° 0.1 mm 1 mps 637 mmHg 92%
    09:00 -4°C° 0.1 mm 1 mps 637 mmHg 92%
    10:00 -4°C° 0.1 mm 1 mps 638 mmHg 92%
    11:00 -3°C° 0 mm 1 mps 638 mmHg 91%
    12:00 -4°C° 0 mm 2 mps 638 mmHg 90%
    13:00 -4°C° 0 mm 2 mps 638 mmHg 89%
    14:00 -4°C° 0 mm 2 mps 638 mmHg 91%
    15:00 -5°C° 0 mm 2 mps 638 mmHg 92%
    16:00 -4°C° 0 mm 1 mps 638 mmHg 93%
    17:00 -6°C° 0 mm 1 mps 638 mmHg 94%
    18:00 -7°C° 0 mm 1 mps 638 mmHg 94%
    19:00 -9°C° 0 mm 1 mps 638 mmHg 95%
    20:00 -9°C° 0 mm 1 mps 638 mmHg 93%
    21:00 -10°C° 0 mm 1 mps 638 mmHg 92%
    22:00 -11°C° 0 mm 1 mps 638 mmHg 91%
    23:00 -11°C° 0 mm 1 mps 638 mmHg 89%
    Show more